This demonstration page uses our WeatherBlox Daily Observations layout. Learn more.

Left ArrowRight Arrow

39.01783, -85.05884

Hourly Observations for February 7, 2017

Temp ( °F °C ) Dew Point ( °F °C ) Humidity (%) Winds ( mph kmh ) Pressure ( in mb ) Visibility ( mi km ) Precip ( " mm )
12:27 am 00:27 Cloudy with Nearby Thunderstorms 55 12.8 55 12.8 100 100 S 9 15 29.77 1008 4 6 0.35 8.89
12:41 am 00:41 Cloudy 56 13.3 55 12.8 97 97 S 10 17 29.77 1008 10 16 0.35 8.89
12:52 am 00:52 Cloudy 56 13.3 55 12.8 97 97 S 8 13 29.75 1008 9 14 0.35 8.89
1:52 am 01:52 Cloudy with Mist and Fog 58 14.4 57 13.9 97 97 SSW 14 22 29.71 1006 6 10 0.00 0.00
2:22 am 02:22 Cloudy with Thunderstorms 59 15 57 13.9 93 93 S 20 31 29.68 1005 4 6 0.02 0.51
2:52 am 02:52 Cloudy with Thunderstorms 59 15 57 13.9 93 93 S 16 26 29.69 1006 6 10 0.06 1.52
3:13 am 03:13 Cloudy with Rain 59 15 57 13.9 93 93 SSW 13 20 29.68 1005 4 6 0.11 2.79
3:33 am 03:33 Cloudy 59 15 57 13.9 93 93 SSW 17 28 29.68 1005 8 13 0.15 3.81
3:52 am 03:52 Cloudy 59 15 57 13.9 93 93 SSW 13 20 29.68 1005 9 14 0.15 3.81
4:52 am 04:52 Cloudy 59 15 56 13.3 90 90 SSW 15 24 29.66 1004 10 16 0.00 0.00
5:23 am 05:23 Cloudy 59 15 56 13.3 90 90 SSW 15 24 29.62 1003 10 16 0.00 0.00
5:52 am 05:52 Cloudy 59 15 56 13.3 90 90 SSW 16 26 29.64 1004 10 16 0.00 0.00
6:52 am 06:52 Cloudy 60 15.6 55 12.8 84 84 SSW 15 24 29.64 1004 10 16 0.00 0.00
7:24 am 07:24 Cloudy 61 16 55 13 83 83 SSW 20 31 29.62 1003 10 16 0.00 0.00
7:52 am 07:52 Cloudy 59 15 55 12.8 87 87 SSW 18 30 29.63 1003 10 16 0.00 0.03
8:52 am 08:52 Cloudy with Light Rain 58 14.4 55 12.8 90 90 SSW 22 35 29.62 1003 8 13 0.00 0.03
9:42 am 09:42 Cloudy with Light Rain 57 14 54 12 88 88 S 13 20 29.59 1002 10 16 0.00 0.00
9:52 am 09:52 Cloudy with Light Rain 58 14.4 55 12.8 90 90 SSW 17 28 29.61 1003 6 10 0.01 0.25
10:52 am 10:52 Cloudy with Light Rain 58 14.4 55 12.8 90 90 S 22 35 29.55 1001 8 13 0.05 1.27
11:05 am 11:05 Cloudy 58 14.4 55 12.8 90 90 S 23 37 29.53 1000 10 16 0.00 0.03
11:52 am 11:52 Cloudy with Light Rain 58 14.4 54 12.2 87 87 SSW 17 28 29.54 1001 10 16 0.00 0.03
12:52 pm 12:52 Cloudy 59 15 54 12.2 83 83 SSW 18 30 29.53 1000 10 16 0.00 0.03
1:52 pm 13:52 Cloudy with Light Rain 57 13.9 54 12.2 90 90 SSW 14 22 29.52 1000 10 16 0.01 0.25
2:12 pm 14:12 Cloudy with Light Rain 57 14 55 13 94 94 SSW 14 22 29.50 999 10 16 0.00 0.00
2:52 pm 14:52 Mostly Cloudy 58 14.4 55 12.8 90 90 SSW 16 26 29.48 998 10 16 0.00 0.03
3:52 pm 15:52 Cloudy 59 15 54 12.2 83 83 SSW 16 26 29.48 998 10 16 0.00 0.00
4:30 pm 16:30 Cloudy 59 15 54 12 82 82 SSW 17 28 29.50 999 10 16 0.00 0.00
4:52 pm 16:52 Cloudy with Light Rain 58 14.4 53 11.7 84 84 SSW 14 22 29.49 999 10 16 0.00 0.03
5:52 pm 17:52 Cloudy with Light Rain 58 14.4 54 12.2 87 87 SW 15 24 29.52 1000 7 11 0.00 0.03
6:52 pm 18:52 Cloudy 57 13.9 54 12.2 90 90 SSW 12 19 29.54 1001 10 16 0.00 0.03
7:52 pm 19:52 Cloudy 57 13.9 54 12.2 90 90 SSW 12 19 29.55 1001 10 16 0.00 0.00
8:52 pm 20:52 Cloudy 57 13.9 54 12.2 90 90 SW 8 13 29.57 1001 10 16 0.00 0.00
9:52 pm 21:52 Partly Cloudy 57 13.9 54 12.2 90 90 SW 8 13 29.59 1002 10 16 0.00 0.00
10:30 pm 22:30 Cloudy 56 13.3 54 12.2 93 93 W 9 15 29.62 1003 10 16 0.00 0.00
10:47 pm 22:47 Cloudy 55 13 50 10 82 82 NW 21 33 29.65 1004 10 16 0.00 0.00
10:52 pm 22:52 Cloudy 54 12.2 49 9.4 83 83 NW 17 28 29.63 1003 9 14 0.00 0.00
11:12 pm 23:12 Partly Cloudy 52 11.1 48 8.9 86 86 WNW 12 19 29.65 1004 9 14 0.00 0.00
11:52 pm 23:52 Cloudy 52 11.1 47 8.3 83 83 WNW 15 24 29.65 1004 9 14 0.00 0.00

Powered by AerisWeather